This is the latest recevied weather packets stored in our database for station/object KI7MOQ. If no packets are shown the sender has not sent any weather packets the latest 10 day(s).
| Time | Temp. | Humidity | Pressure | Rain* | Wind** | Luminosity | Snow |
|---|---|---|---|---|---|---|---|
| 1777750668 | 16.11° C | 72% | 1017.2 hPa | 0 mm | - | 163 W/m² | - |
| 1777750361 | 16.11° C | 73% | 1017.3 hPa | 0 mm | - | 95 W/m² | - |
| 1777750061 | 15.56° C | 74% | 1017.4 hPa | 0 mm | - | 444 W/m² | - |
| 1777749759 | 15.56° C | 75% | 1017.4 hPa | 0 mm | - | 101 W/m² | - |
| 1777749455 | 15.56° C | 74% | 1017.5 hPa | 0 mm | - | 108 W/m² | - |
| 1777749153 | 15.56° C | 74% | 1017.5 hPa | 0 mm | - | 152 W/m² | - |
| 1777748850 | 15.56° C | 75% | 1017.5 hPa | 0 mm | - | 193 W/m² | - |
| 1777748548 | 15.56° C | 75% | 1017.5 hPa | 0 mm | - | 212 W/m² | - |
| 1777748247 | 15.56° C | 77% | 1017.4 hPa | 0 mm | - | 492 W/m² | - |
| 1777747944 | 15.56° C | 76% | 1017.5 hPa | 0 mm | - | 215 W/m² | - |
| 1777747640 | 15° C | 78% | 1017.5 hPa | 0 mm | - | 437 W/m² | - |
| 1777747336 | 13.89° C | 80% | 1017.7 hPa | 0 mm | - | 288 W/m² | - |
| 1777747033 | 14.44° C | 80% | 1017.8 hPa | 0 mm | - | 244 W/m² | - |
| 1777746729 | 14.44° C | 80% | 1017.9 hPa | 0 mm | - | 205 W/m² | - |
| 1777746424 | 13.89° C | 81% | 1017.8 hPa | 0 mm | - | 163 W/m² | - |
| 1777746120 | 13.89° C | 81% | 1018 hPa | 0 mm | - | 133 W/m² | - |
| 1777745818 | 13.33° C | 82% | 1018.1 hPa | 0 mm | - | 145 W/m² | - |
| 1777745517 | 13.33° C | 81% | 1018.3 hPa | 0 mm | - | 115 W/m² | - |
| 1777745213 | 13.89° C | 81% | 1018.1 hPa | 0 mm | - | 134 W/m² | - |
| 1777744910 | 13.89° C | 81% | 1018.3 hPa | 0 mm | - | 117 W/m² | - |
| 1777744609 | 13.33° C | 81% | 1018.5 hPa | 0 mm | - | 128 W/m² | - |
| 1777744305 | 13.33° C | 81% | 1018.6 hPa | 0 mm | - | 131 W/m² | - |
| 1777744003 | 13.33° C | 82% | 1018.8 hPa | 0 mm | - | 129 W/m² | - |
| 1777743699 | 13.89° C | 80% | 1018.7 hPa | 0 mm | - | 112 W/m² | - |
| 1777743396 | 13.33° C | 81% | 1018.6 hPa | 0 mm | - | 114 W/m² | - |
* Rain latest hour (hover to see other rain measurements)
** Current wind speed in m/s (hover to see current wind gust speed)